Location: Cabeza de los Veneras
(40.2000°N, 5.2000°W)
Time: 14:00:03
(UTC+00:00)

CENTAUR R/B - Pass Details

Date: 18 April 2024
Orbit: 669 x 1516 km, 63.4° (Epoch: 28 May)

Event Time Altitude Azimuth Distance (km) Brightness Sun altitude
Rises 23:21:56 0° 323° (NW) 4,279 6.7 -36.8°
Reaches altitude 10° 23:24:38 10° 322° (NW) 3,401 6.0 -37.0°
Enters shadow 23:32:13 67° 280° (W) 1,569 3.4 -37.4°
